Content
SEND FEEDBACK

Daily
Averages
Monthly
Summary
United States of America

RED BLUFF, CALIFORNIA


Home > North America > United States > California
Elevation: 344 feet     Latitude: 40 09N     Longitude: 122 15W

WEATHER
 
SELECT A DAY
Number of Records: 185,530;   Date Range: 1/1/95 - 10/21/14
 
SHARE

PRINT THIS DATA

[ ← Previous Day ]
WEATHER ALMANAC - MARCH 31, 2013
[ Next Day → ]
[ °C ]   °F
Weather ElementAverageHighLow
Temperature58.3 °F66 °F (3:54 pm)53.6 °F (11:54 pm)
Dewpoint52.5 °F55.9 °F (1:54 am)45 °F (2:54 pm)
Humidity81.9 %94 % (5:25 am)48 % (2:54 pm)
Barometer30.04 in30.09 in (10:34 am)29.99 in (1:54 am)
Wind Speed7 mph17.3 mph (11:43 am)
Wind Gust21.9 mph (11:43 am)
Weather ElementAverage
Visibility8.8 mi
Wind DirectionSSE (164.4 °)

Weather ElementTotal
Precipitation1.08 in
Heating Degree Days5.2 (Base 65)
Growing Degree Days9.8 (Base 50)
Averaged from 39 records on March 31, 2013
WEATHER CONDITIONS BREAKOUT
WIND DIRECTION BREAKOUT
WEATHER BY HOUR - MARCH 31, 2013
[ °C ]   °F
Local TimeTemperatureDewpointHumidityBarometerVisibilityWind DirectionWind SpeedGust SpeedPrecipitationEventsConditions
1:54 AM59.0 °F55.9 °F90 %29.99 in10.0 miNW (320°)6.9 mph0.02 inOvercast
2:54 AM59.0 °F55.9 °F90 %30.01 in7.0 miCalm0.01 inRainLight Rain
3:04 AM59.0 °F55.4 °F88 %30.02 in3.0 miSSE (150°)5.8 mph0.05 inRainHeavy Rain
3:17 AM59.0 °F55.4 °F88 %30.02 in3.0 miWest (260°)10.4 mph18.4 mph0.11 inRainRain
3:27 AM57.2 °F53.6 °F88 %30.01 in7.0 miNNW (330°)9.2 mph0.13 inRainLight Rain
3:35 AM57.2 °F53.6 °F88 %30.01 in6.0 miCalm0.14 inRainRain
3:54 AM57.0 °F55.0 °F93 %30.01 in5.0 miNW (320°)4.6 mph0.19 inRainRain
4:54 AM55.9 °F53.1 °F90 %30.01 in10.0 miCalm0.04 inRainLight Rain
5:25 AM55.4 °F53.6 °F94 %30.02 in10.0 miCalm0.02 inRainLight Rain
5:45 AM57.2 °F53.6 °F88 %30.03 in10.0 miSouth (170°)4.6 mph0.02 inOvercast
5:54 AM55.9 °F54.0 °F93 %30.03 in10.0 miSouth (190°)3.5 mph0.02 inOvercast
6:33 AM55.4 °F53.6 °F94 %30.04 in9.0 miSSE (150°)5.8 mph0.01 inRainLight Rain
6:54 AM55.9 °F54.0 °F93 %30.05 in7.0 miSouth (180°)5.8 mph0.02 inRainLight Rain
7:07 AM55.4 °F53.6 °F94 %30.06 in3.0 miSouth (170°)6.9 mph0.02 inRainHeavy Rain
7:30 AM55.4 °F53.6 °F94 %30.06 in5.0 miSSE (160°)4.6 mph0.13 inRainRain
7:54 AM55.9 °F53.1 °F90 %30.05 in10.0 miSE (140°)5.8 mph0.14 inRainLight Rain
8:54 AM55.9 °F53.1 °F90 %30.06 in10.0 miCalm0.01 inOvercast
9:54 AM57.0 °F53.1 °F87 %30.06 in10.0 miSSE (160°)8.1 mph0.00 inRainLight Rain
10:25 AM57.2 °F53.6 °F88 %30.08 in10.0 miSE (140°)11.5 mph0.00 inRainLight Rain
10:34 AM57.2 °F53.6 °F88 %30.09 in10.0 miSE (140°)10.4 mph0.00 inOvercast
10:54 AM57.9 °F53.1 °F84 %30.08 in10.0 miSE (140°)15.0 mph0.00 inOvercast
11:03 AM57.2 °F53.6 °F88 %30.09 in10.0 miSSE (150°)12.7 mphOvercast
11:43 AM60.8 °F53.6 °F77 %30.08 in10.0 miSSE (160°)17.3 mph21.9 mphOvercast
11:54 AM60.1 °F53.1 °F78 %30.08 in10.0 miSSE (150°)15.0 mphOvercast
12:47 PM60.8 °F51.8 °F72 %30.08 in10.0 miSSE (150°)13.8 mphOvercast
12:54 PM61.0 °F52.0 °F72 %30.08 in10.0 miSSE (150°)13.8 mphOvercast
1:54 PM63.0 °F51.1 °F65 %30.06 in10.0 miSE (140°)15.0 mphMostly Cloudy
2:54 PM64.9 °F45.0 °F48 %30.03 in10.0 miSE (130°)10.4 mph19.6 mphPartly Cloudy
3:54 PM66.0 °F46.0 °F48 %30.01 in10.0 miSouth (180°)9.2 mphScattered Clouds
4:54 PM63.0 °F48.9 °F60 %30.01 in10.0 miWest (260°)9.2 mphClear
5:54 PM62.1 °F48.9 °F62 %30.01 in10.0 miWest (270°)5.8 mphScattered Clouds
6:54 PM60.8 °F51.8 °F72 %30.02 in10.0 miNW (310°)5.8 mphScattered Clouds
7:29 PM59.0 °F51.8 °F77 %30.02 in10.0 miNNW (330°)4.6 mphThunderstormMostly Cloudy
7:44 PM59.0 °F51.8 °F77 %30.02 in10.0 miNNW (340°)3.5 mph0.00 inRainLight Rain
7:54 PM59.0 °F51.1 °F75 %30.02 in10.0 miNorth (360°)5.8 mph0.00 inRainLight Rain
8:54 PM57.9 °F50.0 °F75 %30.02 in10.0 miNE (50°)5.8 mph0.00 inOvercast
9:54 PM57.0 °F51.1 °F81 %30.05 in10.0 miSSE (160°)4.6 mphOvercast
10:54 PM55.0 °F50.0 °F83 %30.04 in10.0 miCalmClear
11:54 PM53.6 °F51.8 °F94 %30.05 in10.0 miCalmOvercast
Hourly data recorded from KRBL, located miles away from Red Bluff, California







STORIES FROM OUR PARTNERS